Change the Weather History Date:

Saturday, March 16, 2013

  Actual Average Record
Temperature  
Mean Temperature 30 °F -  
Max Temperature 35 °F 49 °F 89 °F (2015)
Min Temperature 24 °F 27 °F 12 °F (1949)
Degree Days  
Heating Degree Days 36    
Moisture  
Dew Point 21 °F    
Average Humidity 69    
Maximum Humidity 86    
Minimum Humidity 52    
Precipitation  
Precipitation 0.00 in - - ()
Sea Level Pressure  
Sea Level Pressure 30.09 in    
Wind  
Wind Speed 14 mph (NNE)    
Max Wind Speed 21 mph    
Max Gust Speed 29 mph    
Visibility 10 miles    
Events      
Averages and records for this station are not official NWS values.
T = Trace of Precipitation, MM = Missing Value Source: NWS Daily Summary

Daily Weather History Graph

Daily Weather History Graph

Search for Another Location

Airport or City:

Trip Planner

Search our weather history database for the weather conditions in past years. The results will help you decide how hot, cold, wet, or windy it might be!

Date:

Astronomy

Mar. 16, 2013 Rise Set
Actual Time 7:38 AM CDT 7:37 PM CDT
Civil Twilight 7:11 AM CDT 8:05 PM CDT
Nautical Twilight 6:39 AM CDT 8:37 PM CDT
Astronomical Twilight 6:06 AM CDT 9:10 PM CDT
Moon 10:06 AM CDT (3/16) No Moon Set
Length of Visible Light 12h 53m
Length of Day
11h 58m
Waxing Crescent, 23% of the Moon is Illuminated
Mar 16
Waxing Crescent
Mar 19
First Quarter
Mar 27
Full
Apr 2
Last Quarter
Apr 10
New

Hourly Weather History & Observations

Time (CDT) Temp. Windchill Dew Point Humidity Pressure Visibility Wind Dir Wind Speed Gust Speed Precip Events Conditions
12:55 AM 35.6 °F 28.0 °F 30.2 °F 81% 29.92 in 5.0 mi NNW 10.4 mph - N/A   Overcast
1:35 AM 33.8 °F 24.8 °F 28.4 °F 81% 29.94 in 8.0 mi North 12.7 mph - N/A   Mostly Cloudy
1:55 AM 35.6 °F 25.5 °F 28.4 °F 75% 29.93 in 8.0 mi North 17.3 mph 23.0 mph N/A   Overcast
2:15 AM 33.8 °F 22.2 °F 28.4 °F 81% 29.96 in 9.0 mi NNW 20.7 mph 27.6 mph N/A   Overcast
2:35 AM 32.0 °F 20.1 °F 26.6 °F 80% 29.97 in 8.0 mi NNW 19.6 mph 23.0 mph N/A   Overcast
2:55 AM 30.2 °F 17.4 °F 26.6 °F 86% 29.99 in 8.0 mi NNW 20.7 mph 26.5 mph N/A   Overcast
3:15 AM 30.2 °F 18.5 °F 26.6 °F 86% 29.99 in 10.0 mi NNW 17.3 mph 21.9 mph N/A   Overcast
3:35 AM 30.2 °F 18.5 °F 24.8 °F 80% 29.99 in 10.0 mi North 17.3 mph 24.2 mph N/A   Overcast
3:55 AM 30.2 °F 17.8 °F 24.8 °F 80% 29.98 in 10.0 mi North 19.6 mph 25.3 mph N/A   Overcast
4:15 AM 30.2 °F 17.4 °F 24.8 °F 80% 29.98 in 10.0 mi North 20.7 mph 26.5 mph N/A   Overcast
4:35 AM 30.2 °F 19.8 °F 24.8 °F 80% 29.98 in 10.0 mi North 13.8 mph 28.8 mph N/A   Overcast
4:55 AM 30.2 °F 20.2 °F 24.8 °F 80% 29.99 in 10.0 mi North 12.7 mph 24.2 mph N/A   Scattered Clouds
5:15 AM 30.2 °F 18.9 °F 24.8 °F 80% 29.98 in 10.0 mi North 16.1 mph 20.7 mph N/A   Mostly Cloudy
5:35 AM 28.4 °F 15.8 °F 21.2 °F 74% 30.02 in 10.0 mi NNW 18.4 mph 24.2 mph N/A   Mostly Cloudy
5:55 AM 28.4 °F 17.0 °F 19.4 °F 69% 30.04 in 10.0 mi North 15.0 mph 21.9 mph N/A   Overcast
6:15 AM 28.4 °F 16.2 °F 19.4 °F 69% 30.06 in 10.0 mi North 17.3 mph 28.8 mph N/A   Overcast
6:35 AM 26.6 °F 14.7 °F 19.4 °F 74% 30.08 in 10.0 mi North 15.0 mph 20.7 mph N/A   Overcast
6:55 AM 26.6 °F 15.2 °F 19.4 °F 74% 30.09 in 10.0 mi North 13.8 mph - N/A   Overcast
7:15 AM 26.6 °F 14.7 °F 19.4 °F 74% 30.12 in 10.0 mi NNW 15.0 mph 21.9 mph N/A   Overcast
7:35 AM 26.6 °F 13.1 °F 19.4 °F 74% 30.10 in 10.0 mi NNW 19.6 mph - N/A   Overcast
7:55 AM 26.6 °F 14.3 °F 19.4 °F 74% 30.11 in 10.0 mi North 16.1 mph 20.7 mph N/A   Overcast
8:15 AM 24.8 °F 12.9 °F 19.4 °F 80% 30.11 in 10.0 mi North 13.8 mph 18.4 mph N/A   Overcast
8:35 AM 24.8 °F 11.9 °F 17.6 °F 74% 30.11 in 10.0 mi North 16.1 mph 21.9 mph N/A   Overcast
8:55 AM 24.8 °F 13.4 °F 17.6 °F 74% 30.11 in 10.0 mi North 12.7 mph - N/A   Overcast
9:15 AM 24.8 °F 12.4 °F 17.6 °F 74% 30.12 in 10.0 mi North 15.0 mph 19.6 mph N/A   Overcast
9:35 AM 24.8 °F 13.4 °F 17.6 °F 74% 30.11 in 10.0 mi North 12.7 mph - N/A   Overcast
9:55 AM 24.8 °F 13.4 °F 17.6 °F 74% 30.11 in 10.0 mi North 12.7 mph - N/A   Overcast
10:15 AM 24.8 °F 11.5 °F 17.6 °F 74% 30.12 in 10.0 mi NNE 17.3 mph - N/A   Overcast
10:35 AM 24.8 °F 12.4 °F 17.6 °F 74% 30.12 in 10.0 mi North 15.0 mph - N/A   Overcast
10:55 AM 24.8 °F 12.4 °F 17.6 °F 74% 30.12 in 10.0 mi NNE 15.0 mph 21.9 mph N/A   Overcast
11:15 AM 24.8 °F 11.9 °F 17.6 °F 74% 30.13 in 10.0 mi North 16.1 mph - N/A   Overcast
11:35 AM 26.6 °F 14.3 °F 17.6 °F 69% 30.14 in 10.0 mi North 16.1 mph 20.7 mph N/A   Overcast
11:55 AM 28.4 °F 18.0 °F 17.6 °F 64% 30.15 in 10.0 mi North 12.7 mph - N/A   Overcast
12:15 PM 26.6 °F 13.8 °F 17.6 °F 69% 30.15 in 10.0 mi North 17.3 mph 20.7 mph N/A   Overcast
12:35 PM 28.4 °F 17.0 °F 17.6 °F 64% 30.16 in 10.0 mi NNE 15.0 mph 19.6 mph N/A   Mostly Cloudy
12:55 PM 30.2 °F 20.2 °F 19.4 °F 64% 30.15 in 10.0 mi North 12.7 mph - N/A   Mostly Cloudy
1:15 PM 30.2 °F 20.8 °F 17.6 °F 60% 30.15 in 10.0 mi NNE 11.5 mph 20.7 mph N/A   Mostly Cloudy
1:35 PM 30.2 °F 19.3 °F 17.6 °F 60% 30.14 in 10.0 mi North 15.0 mph 20.7 mph N/A   Mostly Cloudy
1:55 PM 32.0 °F 22.1 °F 19.4 °F 60% 30.14 in 10.0 mi North 13.8 mph - N/A   Mostly Cloudy
2:15 PM 33.8 °F 24.8 °F 19.4 °F 56% 30.13 in 10.0 mi North 12.7 mph 18.4 mph N/A   Mostly Cloudy
2:35 PM 33.8 °F 25.8 °F 19.4 °F 56% 30.12 in 10.0 mi NNE 10.4 mph 18.4 mph N/A   Mostly Cloudy
2:55 PM 33.8 °F 24.8 °F 19.4 °F 56% 30.11 in 10.0 mi NNE 12.7 mph 17.3 mph N/A   Partly Cloudy
3:15 PM 33.8 °F 25.3 °F 19.4 °F 56% 30.11 in 10.0 mi NNE 11.5 mph 16.1 mph N/A   Partly Cloudy
3:35 PM 35.6 °F 26.6 °F 19.4 °F 52% 30.09 in 10.0 mi NNE 13.8 mph 21.9 mph N/A   Partly Cloudy
3:55 PM 35.6 °F 27.5 °F 19.4 °F 52% 30.09 in 10.0 mi NNE 11.5 mph 17.3 mph N/A   Partly Cloudy
4:15 PM 35.6 °F 28.0 °F 19.4 °F 52% 30.10 in 10.0 mi NNE 10.4 mph - N/A   Clear
4:35 PM 35.6 °F 28.6 °F 19.4 °F 52% 30.10 in 10.0 mi NE 9.2 mph - N/A   Partly Cloudy
4:55 PM 35.6 °F 29.9 °F 19.4 °F 52% 30.10 in 10.0 mi North 6.9 mph - N/A   Partly Cloudy
5:15 PM 33.8 °F 25.8 °F 19.4 °F 56% 30.10 in 10.0 mi NNE 10.4 mph - N/A   Partly Cloudy
5:35 PM 33.8 °F 26.4 °F 19.4 °F 56% 30.10 in 10.0 mi NE 9.2 mph - N/A   Scattered Clouds
5:55 PM 33.8 °F 25.8 °F 19.4 °F 56% 30.10 in 10.0 mi NNE 10.4 mph - N/A   Scattered Clouds
6:15 PM 33.8 °F 25.8 °F 19.4 °F 56% 30.09 in 10.0 mi NE 10.4 mph - N/A   Mostly Cloudy
6:35 PM 33.8 °F 26.4 °F 19.4 °F 56% 30.11 in 10.0 mi NE 9.2 mph - N/A   Partly Cloudy
6:55 PM 32.0 °F 25.6 °F 19.4 °F 60% 30.12 in 10.0 mi NE 6.9 mph - N/A   Mostly Cloudy
7:15 PM 32.0 °F 25.6 °F 19.4 °F 60% 30.12 in 10.0 mi NNE 6.9 mph - N/A   Mostly Cloudy
7:35 PM 32.0 °F 25.6 °F 19.4 °F 60% 30.13 in 10.0 mi NNE 6.9 mph - N/A   Mostly Cloudy
7:55 PM 30.2 °F 23.4 °F 19.4 °F 64% 30.13 in 10.0 mi NE 6.9 mph - N/A   Mostly Cloudy
8:15 PM 30.2 °F 21.9 °F 21.2 °F 69% 30.14 in 10.0 mi NE 9.2 mph - N/A   Overcast
8:35 PM 30.2 °F 21.3 °F 21.2 °F 69% 30.15 in 10.0 mi NE 10.4 mph - N/A   Mostly Cloudy
8:55 PM 30.2 °F 21.9 °F 21.2 °F 69% 30.16 in 10.0 mi NE 9.2 mph - N/A   Overcast
9:15 PM 30.2 °F 21.9 °F 21.2 °F 69% 30.16 in 10.0 mi NNE 9.2 mph - N/A   Overcast
9:35 PM 30.2 °F 21.9 °F 21.2 °F 69% 30.16 in 10.0 mi NE 9.2 mph - N/A   Overcast
9:55 PM 30.2 °F 22.6 °F 21.2 °F 69% 30.16 in 10.0 mi NE 8.1 mph - N/A   Overcast
10:15 PM 30.2 °F 21.3 °F 21.2 °F 69% 30.16 in 10.0 mi NE 10.4 mph - N/A   Overcast
10:35 PM 30.2 °F 21.9 °F 21.2 °F 69% 30.17 in 10.0 mi NE 9.2 mph - N/A   Overcast
10:55 PM 30.2 °F 20.8 °F 21.2 °F 69% 30.16 in 10.0 mi East 11.5 mph - N/A   Overcast
11:15 PM 30.2 °F 21.3 °F 21.2 °F 69% 30.15 in 10.0 mi East 10.4 mph - N/A   Overcast
11:35 PM 30.2 °F 21.3 °F 21.2 °F 69% 30.14 in 10.0 mi East 10.4 mph - N/A   Overcast
11:55 PM 28.4 °F 19.1 °F 21.2 °F 74% 30.14 in 10.0 mi East 10.4 mph - N/A   Overcast